{"data":{"norad_id":62644,"intl_designator":"2025-009AM","name":"ANSER LEADER-S","alt_names":[],"object_type":"PAYLOAD","status":"ACTIVE","operator":null,"country":"SPN","launch_date":"2025-01-14","launch_site_code":"AFWTR","launch_vehicle":null,"mission":null,"orbit_class":"UNKNOWN","rcs_meters":null,"size_class":null,"mass_kg":null,"dimensions":null,"purposes":[],"wikipedia_slug":null,"has_3d_model":false,"image_url":null,"decayed_at":null,"tle_current":{"epoch":"2026-05-24T19:22:45.079680Z","epoch_age_seconds":84931,"freshness":"FRESH","line1":"1 62644U 25009AM  26144.80746620  .00058095  00000+0  12519-2 0  9994","line2":"2 62644  97.4018 230.9752 0002386  63.8375 296.3118 15.44397173 75592","mean_motion":15.44397173,"eccentricity":0.0002386,"inclination_deg":97.4018,"raan_deg":230.9752,"arg_perigee_deg":63.8375,"mean_anomaly_deg":296.3118,"bstar":0.0012519,"rev_number":7559,"period_min":93.240263914935,"perigee_km":431.52476304113,"apogee_km":434.77510916704,"semimajor_km":6811.2869361041,"source":"CELESTRAK","updated_at":"2026-05-25T13:38:03.136085Z"}}}